Yangon, Myanmar

8:44 AM +0630 on July 23, 2018 (GMT +0630)
Yangon International

Weather History for VYYY - July, 2018

Change the Weather History Date:

Thursday, July 12, 2018

  Actual Average Record
Temperature  
Mean Temperature 74 °F -  
Max Temperature 80 °F - - ()
Min Temperature 68 °F - - ()
Cooling Degree Days 9    
Growing Degree Days 24 (Base 50)    
Moisture  
Dew Point 76 °F    
Average Humidity 97    
Maximum Humidity 100    
Minimum Humidity 87    
Precipitation  
Precipitation 0.00 in - - ()
Sea Level Pressure  
Sea Level Pressure 29.65 in    
Wind  
Wind Speed 4 mph ()    
Max Wind Speed 12 mph    
Max Gust Speed -    
Visibility 3.5 miles    
Events Rain    
T = Trace of Precipitation, MM = Missing Value Source: Averaged Metar Reports

Daily Weather History Graph

Daily Weather History Graph

Search for Another Location

Airport or City:

Astronomy

Jul. 12, 2018 Rise Set
Actual Time 5:39 AM +0630 6:43 PM +0630
Civil Twilight 5:15 AM +0630 7:06 PM +0630
Nautical Twilight 4:47 AM +0630 7:34 PM +0630
Astronomical Twilight 4:18 AM +0630 8:03 PM +0630
Moon 4:31 AM +0630 (7/12) 5:56 PM +0630 (7/12)
Length of Visible Light 13h 51m
Length of Day
13h 03m
Waning Crescent, 1% of the Moon is Illuminated
Jul 12
Waning Crescent
Jul 13
New
Jul 20
First Quarter
Jul 28
Full
Aug 5
Last Quarter

Hourly Weather History & Observations

Time (+0630) Temp. Dew Point Humidity Pressure Visibility Wind Dir Wind Speed Gust Speed Precip Events Conditions
12:00 AM 77.0 °F 75.2 °F 94% 29.68 in 3.7 mi SSW 4.6 mph - N/A Rain Light Rain
12:30 AM 77.0 °F 75.2 °F 94% 29.68 in 3.7 mi West 4.6 mph - N/A   Mostly Cloudy
1:00 AM 77.0 °F 75.2 °F 94% 29.68 in 3.7 mi SSW 4.6 mph - N/A   Mostly Cloudy
1:30 AM 77.0 °F 75.2 °F 94% 29.65 in 3.7 mi SW 5.8 mph - N/A   Mostly Cloudy
2:00 AM 77.0 °F 75.2 °F 94% 29.65 in 3.7 mi West 3.5 mph - N/A   Mostly Cloudy
2:30 AM 77.0 °F 75.2 °F 94% 29.62 in 3.7 mi South 3.5 mph - N/A   Mostly Cloudy
4:00 AM 77.0 °F 75.2 °F 94% 29.62 in 3.7 mi South 3.5 mph - N/A   Mostly Cloudy
4:30 AM 77.0 °F 75.2 °F 94% 29.62 in 3.7 mi South 4.6 mph - N/A   Drizzle
5:00 AM 77.0 °F 75.2 °F 94% 29.62 in 3.7 mi South 4.6 mph - N/A   Drizzle
5:30 AM 77.0 °F 75.2 °F 94% 29.62 in 3.7 mi South 3.5 mph - N/A   Drizzle
6:00 AM 77.0 °F 75.2 °F 94% 29.62 in 3.7 mi NE 4.6 mph - N/A   Drizzle
6:30 AM 75 °F 75 °F 100% 29.68 in 4 mi SSW 1.2 mph - -   Scattered Clouds
7:30 AM 78.8 °F 78.8 °F 100% 29.65 in 1.9 mi SSW 11.5 mph - N/A Rain Rain
8:00 AM 78.8 °F 77.0 °F 94% 29.68 in 3.7 mi SE 4.6 mph - N/A   Drizzle
9:00 AM 78.8 °F 77.0 °F 94% 29.68 in 3.7 mi SE 4.6 mph - N/A   Drizzle
9:30 AM 77 °F 77 °F 100% 29.69 in 4 mi SSW 2.3 mph - - Rain Light Drizzle
9:30 AM 78.8 °F 77.0 °F 94% 29.68 in 3.7 mi ESE 4.6 mph - N/A   Overcast
10:30 AM 77.0 °F 77.0 °F 100% 29.68 in 2.5 mi West 5.8 mph - N/A Rain Rain
11:00 AM 77.0 °F 77.0 °F 100% 29.68 in 2.5 mi WSW 6.9 mph - N/A Rain Rain
11:30 AM 77.0 °F 77.0 °F 100% 29.68 in 2.5 mi WSW 8.1 mph - N/A Rain Rain Showers
12:30 PM 76 °F 75 °F 94% 29.69 in 4 mi NE 1.2 mph - - Rain Light Rain
12:30 PM 77.0 °F 77.0 °F 100% 29.68 in 2.5 mi West 3.5 mph - N/A Rain Rain
1:07 PM 77.0 °F 77.0 °F 100% 29.65 in 2.5 mi SW 6.9 mph - N/A Rain Rain
2:00 PM 77.0 °F 77.0 °F 100% 29.65 in - North - - N/A Rain Rain
2:30 PM 77.0 °F 77.0 °F 100% 29.62 in 3.1 mi SSW 5.8 mph - N/A Rain Rain
3:30 PM 79 °F 78 °F 98% 29.63 in 4 mi SW 1.2 mph - - Rain Light Drizzle
3:30 PM 77.0 °F 77.0 °F 100% 29.62 in 3.1 mi SSW 5.8 mph - N/A Rain Rain
4:00 PM 77.0 °F 77.0 °F 100% 29.62 in 3.7 mi SW 5.8 mph - N/A Rain Light Rain
4:30 PM 77.0 °F 77.0 °F 100% 29.59 in 3.7 mi SSW 3.5 mph - N/A Rain Light Rain
5:30 PM 77.0 °F 77.0 °F 100% 29.62 in 3.7 mi SW 8.1 mph - N/A Rain Light Rain
6:30 PM 77 °F 74 °F 87% 29.64 in 4 mi SW 2.3 mph - - Rain Light Drizzle
6:30 PM 77.0 °F 77.0 °F 100% 29.62 in 3.7 mi SW 9.2 mph - N/A   Overcast
7:00 PM 77.0 °F 77.0 °F 100% 29.62 in 3.7 mi SW 4.6 mph - N/A   Overcast
7:30 PM 77.0 °F 77.0 °F 100% 29.62 in 3.7 mi South 3.5 mph - N/A   Overcast
8:00 PM 77.0 °F 77.0 °F 100% 29.65 in 3.7 mi SW 4.6 mph - N/A   Overcast
9:00 PM 77.0 °F 77.0 °F 100% 29.65 in 3.7 mi SE 3.5 mph - N/A   Overcast
9:30 PM 77.0 °F 77.0 °F 100% 29.68 in 3.7 mi SE 3.5 mph - N/A   Drizzle
10:00 PM 77.0 °F 77.0 °F 100% 29.68 in 3.7 mi SE 4.6 mph - N/A   Drizzle
10:30 PM 77.0 °F 77.0 °F 100% 29.68 in 3.7 mi SE 4.6 mph - N/A   Drizzle
11:00 PM 77.0 °F 77.0 °F 100% 29.68 in 3.7 mi ESE 3.5 mph - N/A   Drizzle
11:30 PM 77.0 °F 77.0 °F 100% 29.68 in 3.7 mi SE 4.6 mph - N/A   Drizzle